Powrót do katalogu

SIRIUS 2

GE-1E

AktywnyŁącznośćGEO
NORAD 25049·PAYLOAD·🇸🇪 Sweden

Wystrzelony Nov 11, 1997 z Guiana Space Centre

Loading…

TLE

ŚwieżeSource: Space-Track

Epoka: Sep 14, 2026, 06:39 UTC

1 25049U 97071A   26257.27759098 -.00000222  00000-0  00000-0 0  9990
2 25049  12.1575  33.1937 0003902 143.6895 213.5275  0.99404030105009

Śledź SIRIUS 2 w czasie rzeczywistym z AllMySat

Download on the App Store